| time (UTC) | temp F | wind direction | speed knots | gust knots | rain 1hr in | rain 24hr in | rain mn in | humidity % | barometer mb |
| 20260505194625 | 83 | 207 | 5.2 | 14.8 | 0.00 | 0.00 | 0.00 | 81 | 1004.4 |
| 20260505193726 | 83 | 197 | 6.1 | 14.8 | 0.00 | 0.00 | 0.00 | 81 | 1004.4 |
| 20260505191925 | 82 | 200 | 2.6 | 13.0 | 0.00 | 0.00 | 0.00 | 84 | 1004.6 |
| 20260505191025 | 82 | 194 | 5.2 | 13.0 | 0.00 | 0.00 | 0.00 | 84 | 1004.8 |
| 20260505190125 | 82 | 193 | 3.5 | 13.9 | 0.00 | 0.00 | 0.00 | 84 | 1004.8 |
| 20260505185225 | 81 | 215 | 2.6 | 10.4 | 0.00 | 0.00 | 0.00 | 84 | 1004.9 |
| 20260505184325 | 81 | 209 | 1.7 | 9.6 | 0.00 | 0.00 | 0.00 | 84 | 1004.9 |
| 20260505183425 | 81 | 221 | 2.6 | 9.6 | 0.00 | 0.00 | 0.00 | 85 | 1004.9 |
| 20260505182525 | 81 | 204 | 4.3 | 10.4 | 0.00 | 0.00 | 0.00 | 85 | 1004.9 |
| 20260505181625 | 81 | 203 | 5.2 | 14.8 | 0.00 | 0.00 | 0.00 | 84 | 1004.9 |
| 20260505180725 | 81 | 197 | 4.3 | 12.2 | 0.00 | 0.00 | 0.00 | 85 | 1005.1 |
| 20260505175825 | 80 | 200 | 3.5 | 13.0 | 0.00 | 0.00 | 0.00 | 85 | 1005.1 |
| 20260505174924 | 80 | 197 | 5.2 | 12.2 | 0.00 | 0.00 | 0.00 | 85 | 1005.4 |
| 20260505174025 | 80 | 195 | 6.1 | 14.8 | 0.00 | 0.00 | 0.00 | 85 | 1005.4 |
| 20260505173124 | 80 | 224 | 2.6 | 13.0 | 0.00 | 0.00 | 0.00 | 85 | 1005.4 |
| 20260505172225 | 80 | 190 | 2.6 | 12.2 | 0.00 | 0.00 | 0.00 | 86 | 1005.4 |
| 20260505170425 | 80 | 199 | 4.3 | 10.4 | 0.00 | 0.00 | 0.00 | 86 | 1005.5 |
| 20260505164624 | 80 | 196 | 3.5 | 9.6 | 0.00 | 0.00 | 0.00 | 86 | 1005.5 |
| 20260505163724 | 80 | 194 | 2.6 | 10.4 | 0.00 | 0.00 | 0.00 | 87 | 1005.5 |
| 20260505162825 | 79 | 216 | 3.5 | 10.4 | 0.00 | 0.00 | 0.00 | 87 | 1005.5 |
| 20260505161925 | 79 | 211 | 4.3 | 13.0 | 0.00 | 0.00 | 0.00 | 87 | 1005.4 |
| 20260505161025 | 79 | 205 | 4.3 | 13.0 | 0.00 | 0.00 | 0.00 | 86 | 1005.3 |
| 20260505160124 | 79 | 200 | 4.3 | 13.0 | 0.00 | 0.00 | 0.00 | 87 | 1005.3 |
| 20260505152525 | 78 | 205 | 2.6 | 10.4 | 0.00 | 0.00 | 0.00 | 87 | 1005.0 |
| 20260505150725 | 78 | 192 | 4.3 | 13.0 | 0.00 | 0.00 | 0.00 | 88 | 1004.9 |
| 20260505140425 | 76 | 196 | 4.3 | 10.4 | 0.00 | 0.00 | 0.00 | 91 | 1005.1 |
| 20260505130124 | 74 | 199 | 1.7 | 10.4 | 0.00 | 0.00 | 0.00 | 93 | 1004.9 |
| 20260505124324 | 74 | 184 | 1.7 | 8.7 | 0.00 | 0.00 | 0.00 | 93 | 1004.8 |
| 20260505123424 | 73 | 184 | 3.5 | 8.7 | 0.00 | 0.00 | 0.00 | 94 | 1004.6 |
| 20260505122525 | 73 | 174 | 1.7 | 9.6 | 0.00 | 0.00 | 0.00 | 93 | 1004.1 |
| 20260505121624 | 73 | 183 | 1.7 | 9.6 | 0.00 | 0.00 | 0.00 | 93 | 1004.1 |
| 20260505115825 | 73 | 189 | 1.7 | 7.0 | 0.00 | 0.00 | 0.00 | 93 | 1004.4 |
| 20260505114924 | 73 | 174 | 0.0 | 5.2 | 0.00 | 0.00 | 0.00 | 93 | 1004.5 |
| 20260505114025 | 73 | 177 | 0.9 | 7.8 | 0.00 | 0.00 | 0.00 | 93 | 1004.3 |
| 20260505113124 | 73 | 186 | 1.7 | 7.8 | 0.00 | 0.00 | 0.00 | 93 | 1004.3 |